Torna al catalogo

STARLINK-6365

AttivoComunicazioniVLEO
NORAD 57237·PAYLOAD·🇺🇸 United States

Lanciato Jul 7, 2023 da Vandenberg Space Force Base

Loading…

Prossimi Passaggi (prossime 24 ore)

TLE

AggiornatoSource: CelesTrak SupGP

Epoca: Sep 15, 2026, 01:54 UTC

1 57237C 23094V   26258.07965278 -.00038884  00000+0 -14092-2 0  2587
2 57237  43.0025  40.9849 0001416 254.3576  45.8610 15.27578366    13

Traccia STARLINK-6365 in tempo reale con AllMySat

Download on the App Store